Dewpoint
14 11 10 9 12 12 9 12 13 12 15 13 12 11 11 13 6 3 2 1 1 9 13 14 15 16 16 16 16 18 20 21 24 25 26 27 27 30 33 35 36 36 37 38
14 12 12 14 13 11 11 12 12 15 12 10 6 7 9 8 6 5 3 10 10 11 11 12 14 14 16 16 16 17 18 19 22 25 26 27 26 28 32 33 35 37 37 39
12 12 13 13 12 13 14 14 15 10 10 9 7 6 4 5 6 5 6 11 11 12 13 13 14 15 15 15 15 16 18 20 21 22 23 24 24 26 26 28 32 33 35 37
14 15 11 14 16 15 12 14 13 11 10 3 8 2 4 5 5 9 11 11 14 15 15 15 15 15 15 15 16 17 18 20 21 22 23 22 23 23 25 26 30 33 33 34
12 13 14 16 15 13 10 15 13 13 9 6 5 6 5 6 8 8 12 15 16 16 16 15 16 16 16 16 16 17 18 19 20 22 21 22 22 23 25 26 27 30 32 35
17 18 18 18 12 13 16 13 12 8 -1 -11 3 4 -1 2 10 11 14 15 15 16 16 17 17 17 17 16 16 17 17 18 19 20 21 21 21 21 23 25 28 30 33 34
12 14 14 11 8 7 3 1 -4 -14 -16 -15 -1 -3 -1 13 15 16 16 14 16 18 17 17 17 16 15 15 15 17 17 18 19 19 20 20 21 22 22 23 26 27 31 33
5 -2 11 8 8 8 6 4 -3 -6 -8 -4 0 -11 4 16 17 17 16 18 18 18 17 17 16 16 14 14 15 16 17 17 18 19 19 19 20 21 21 23 24 27 30 33
4 1 5 6 9 12 0 -5 9 5 -14 -10 -2 1 -1 13 12 13 17 18 17 17 17 16 16 14 13 13 14 15 16 17 17 18 18 18 20 20 21 22 24 26 28 31
2 1 4 6 10 12 9 15 4 -4 -6 -19 -9 -3 -0 0 7 10 15 16 16 15 15 14 15 15 14 14 14 15 16 17 17 17 17 17 18 19 21 23 24 26 28 30
-3 1 1 3 -2 -2 1 -2 7 4 2 -7 -15 -8 1 -1 3 7 12 17 15 13 12 14 14 13 14 14 13 14 15 15 16 16 16 16 17 19 21 21 23 26 28 30
6 9 -2 -5 1 7 8 -1 3 4 -7 -11 -11 -4 2 -1 10 8 14 17 17 15 14 12 11 11 11 11 13 14 14 14 15 15 15 16 16 17 20 20 21 25 27 30
10 7 -0 -8 -8 4 -5 8 13 6 -5 -9 -14 -7 5 12 13 15 16 15 15 13 10 10 8 9 10 11 13 14 14 14 15 15 16 17 17 18 19 19 21 24 27 29
12 -8 -5 -7 -8 -13 -9 -6 -3 -3 -2 -11 -3 -2 5 10 12 16 17 15 9 5 10 8 8 8 9 10 11 13 14 14 16 17 17 16 16 18 18 19 21 24 28 29
9 -3 -12 -4 -2 -13 -4 -4 -1 -10 4 2 -1 1 8 11 14 16 12 9 7 5 7 7 8 7 8 8 9 13 13 14 16 16 15 16 18 19 20 21 22 24 28 29
8 1 -8 0 -7 -13 -11 3 5 6 5 7 9 3 7 13 14 14 10 3 5 2 5 6 7 7 7 8 9 11 12 14 16 15 17 20 23 24 22 23 24 26 28 31
8 4 -6 -11 -11 -8 1 1 -2 -2 -5 0 2 5 6 12 13 14 8 -2 -1 1 5 6 7 8 8 9 10 10 12 15 14 15 19 22 27 31 26 28 29 29 28 31
-1 6 -1 -6 -10 -17 5 4 2 0 -2 2 11 11 7 8 12 12 -4 -4 -0 3 6 7 9 9 9 10 10 11 13 13 13 15 18 22 27 31 32 32 31 31 32 34
10 11 -2 -7 -23 -6 12 8 5 4 6 12 10 6 5 6 10 7 -1 -7 -3 0 6 7 10 9 9 8 9 10 12 12 12 14 17 21 26 28 30 31 33 35 35 35
5 9 8 -10 -11 -17 1 9 14 6 -3 6 2 1 -2 15 9 10 2 -4 -1 3 7 8 9 10 7 7 7 10 10 9 10 13 17 21 24 26 27 29 30 32 33 32
-11 -12 1 -0 -0 -6 12 15 17 -3 -2 7 -1 3 6 9 12 13 12 3 -4 2 6 9 8 8 6 6 6 7 8 7 10 15 17 20 22 24 26 27 29 29 30 31
-6 -10 -9 -4 -12 -11 15 13 11 9 9 5 3 4 6 6 9 10 8 2 3 5 6 7 6 7 6 5 4 5 5 7 11 14 16 17 21 23 25 25 26 27 27 27
-3 5 4 5 -1 6 9 16 16 12 12 9 13 14 15 15 14 15 12 5 4 8 8 8 6 6 5 3 4 3 4 6 10 12 13 15 18 22 23 24 24 24 26 26
7 11 9 4 7 10 6 17 20 15 16 16 16 14 14 16 16 15 14 6 2 5 8 9 5 5 3 2 3 2 4 5 9 10 10 13 14 17 21 23 24 25 24 25
7 8 6 8 9 11 14 18 15 16 14 13 12 13 13 14 14 15 15 9 4 3 5 8 5 5 2 -0 1 1 2 4 6 8 8 9 11 12 15 19 23 24 28 28
8 7 6 5 10 15 16 15 12 11 11 11 10 9 10 11 14 16 16 14 6 5 4 5 4 3 1 -2 -1 -2 -1 1 4 6 6 6 8 9 11 12 15 24 27 29
Lifted_Index
12 11 11 12 12 12 11 9 8 6 3 1 1 1 1 1 1 1 1 2 2 2 2 2 3 3 4 5 6 7 8 9 10 12 13 14 15 15 15 15 14 14 14 14
11 11 12 13 13 12 11 9 7 5 3 2 1 1 1 1 1 1 2 2 2 2 2 2 2 3 4 5 6 6 7 8 10 11 12 14 15 15 15 15 15 15 14 14
11 12 13 13 13 12 10 8 5 3 2 2 1 1 1 1 1 1 1 2 1 2 2 2 3 3 4 5 6 7 7 8 9 10 12 13 14 15 15 15 15 15 15 15
12 13 13 13 12 11 9 6 3 2 1 1 1 1 1 1 1 1 1 1 1 1 2 3 4 4 5 6 7 7 8 9 9 10 11 12 13 14 15 16 16 15 15 15
13 13 13 12 11 9 7 4 3 2 1 1 1 1 1 1 0 0 1 1 1 2 3 4 5 5 6 7 8 9 9 10 10 11 11 11 12 13 15 16 16 16 15 15
13 13 13 12 10 8 5 3 2 1 1 0 0 1 1 1 0 0 1 1 2 3 4 5 6 6 7 8 9 10 10 10 11 11 11 11 11 13 14 15 16 16 16 15
12 12 12 11 10 7 4 2 1 1 0 0 1 1 1 1 1 1 1 2 3 4 4 6 7 8 9 10 10 11 11 11 11 11 11 11 11 12 13 14 15 16 16 16
9 10 11 11 9 7 4 2 1 0 0 0 1 1 1 1 1 2 3 3 4 4 5 7 8 9 10 11 11 11 11 11 11 11 11 11 11 11 11 13 15 16 17 17
9 10 12 12 9 6 3 1 0 0 -0 0 1 1 1 1 2 3 3 4 4 5 7 8 10 10 11 11 11 11 11 11 11 11 10 10 10 10 10 12 13 15 16 17
12 11 12 11 9 6 3 1 1 0 0 0 1 1 1 2 3 3 4 4 5 6 8 9 11 11 11 11 11 11 11 11 11 11 10 10 10 10 10 11 12 13 15 16
14 12 11 10 9 6 3 1 1 0 0 0 1 1 2 3 3 4 4 5 6 7 9 10 11 12 12 12 12 12 12 11 11 11 11 10 10 10 10 10 10 11 13 14
14 12 10 9 8 6 4 2 1 1 1 1 1 1 2 3 3 4 4 5 7 8 10 11 12 12 12 12 12 12 12 12 13 13 12 11 11 11 10 9 9 10 11 12
12 11 8 7 6 6 4 2 1 1 1 1 1 2 2 3 3 4 4 5 7 9 10 11 11 12 12 12 12 13 13 14 15 15 14 12 12 11 10 9 9 9 10 11
11 9 6 5 5 4 3 2 2 2 2 2 2 2 3 3 3 4 4 6 7 9 10 10 11 12 12 12 13 13 14 15 16 15 14 13 11 10 9 8 8 8 9 10
10 8 5 4 4 3 3 2 2 2 2 2 2 2 3 3 4 4 5 6 7 8 9 10 11 12 12 13 13 14 15 16 16 14 13 11 10 8 7 6 6 7 8 8
9 7 4 3 3 3 2 2 2 2 2 2 2 3 3 4 4 4 5 7 7 8 9 10 11 12 12 13 13 14 15 16 15 13 11 9 7 5 5 5 5 6 7 7
8 6 4 2 2 2 2 2 2 2 2 3 3 3 4 4 4 4 6 7 8 8 9 10 11 12 13 13 13 13 14 15 14 12 10 7 4 3 3 4 4 5 6 7
8 6 4 2 1 1 2 2 2 2 2 3 3 4 4 4 4 5 6 7 8 9 10 11 12 12 13 13 13 13 13 14 13 12 10 7 5 4 3 4 4 5 6 6
8 6 3 2 1 1 2 2 2 2 2 3 3 4 4 4 4 4 6 7 9 9 11 12 12 12 12 13 13 13 12 12 12 12 12 9 7 5 4 4 4 5 5 5
7 6 3 2 1 1 2 2 2 2 2 3 4 4 4 4 4 4 6 8 9 10 11 12 12 12 12 13 13 13 12 12 11 12 12 12 10 7 6 5 5 5 5 5
7 5 3 2 1 1 2 2 3 2 2 3 4 4 5 4 4 5 6 7 9 10 10 11 11 12 12 13 13 12 12 12 11 11 11 11 11 10 9 8 7 7 6 6
6 5 4 2 2 1 2 2 3 3 3 4 4 5 5 5 5 5 5 7 8 9 10 10 10 10 11 12 12 12 12 13 12 11 10 10 11 11 11 10 10 9 9 8
6 5 4 3 2 2 2 2 3 3 3 4 4 5 5 5 5 5 5 6 7 9 9 10 10 9 10 11 11 12 12 13 13 12 11 10 10 10 10 10 10 10 9 9
5 5 4 3 3 2 2 2 3 3 4 4 5 5 5 5 5 5 5 5 6 8 9 10 10 9 9 10 10 11 12 12 12 12 12 12 11 11 11 10 10 9 9 9
4 4 3 3 3 2 2 2 3 3 4 4 5 5 6 6 6 5 5 5 6 7 8 9 10 9 9 9 10 10 11 11 11 11 11 12 12 12 12 12 12 11 11 11
3 3 3 3 3 2 2 2 3 3 4 5 5 5 6 6 6 6 6 5 5 6 8 9 10 10 9 9 10 10 10 10 10 10 11 12 12 13 13 13 14 14 14 13